Hourly Data Report for December 12, 2003

TORONTO CITY
ONTARIO

43°40'00.000" N
79°24'00.000" W
112.50 m
6158355
71508
XTO

Download Data

Hourly Data (December 2003)
Hourly Data Report for December 12, 2003
TIME
LST
Temp Definition
°C
Dew Point Definition
°C
Rel Hum Definition
%
Precip. Amount Definition
mm

Wind Dir Definition
10's deg

Wind Spd Definition
km/h
Visibility Definition
km
Stn Press Definition
kPa
Hmdx Definition


Wind Chill Definition


Weather Definition


00:00 -1.0 -6.2 68   LegendMM LegendMM LegendMM 99.71     LegendNANA
01:00 -1.2 -5.9 70   LegendMM LegendMM LegendMM 99.79     LegendNANA
02:00 -0.8 -5.1 73   LegendMM LegendMM LegendMM 99.90     LegendNANA
03:00 -1.0 -3.8 81   LegendMM LegendMM LegendMM 100.00     LegendNANA
04:00 -1.2 -3.3 86   LegendMM LegendMM LegendMM 100.04     LegendNANA
05:00 -1.3 -3.7 84   LegendMM LegendMM LegendMM 100.09     LegendNANA
06:00 -1.6 -3.6 86   LegendMM LegendMM LegendMM 100.17     LegendNANA
07:00 -2.5 -4.3 87   LegendMM LegendMM LegendMM 100.25     LegendNANA
08:00 -2.5 -5.4 80   LegendMM LegendMM LegendMM 100.32     LegendNANA
09:00 -2.1 -4.8 82   LegendMM LegendMM LegendMM 100.37     LegendNANA
10:00 -1.1 -5.6 71   LegendMM LegendMM LegendMM 100.43     LegendNANA
11:00 -0.9 -7.8 59   LegendMM LegendMM LegendMM 100.44     LegendNANA
12:00 -0.6 -7.1 61   LegendMM LegendMM LegendMM 100.41     LegendNANA
13:00 -1.2 -6.2 69   LegendMM LegendMM LegendMM 100.41     LegendNANA
14:00 -1.1 -8.0 59   LegendMM LegendMM LegendMM 100.46     LegendNANA
15:00 -1.7 -8.7 59   LegendMM LegendMM LegendMM 100.54     LegendNANA
16:00 -1.8 -9.1 57   LegendMM LegendMM LegendMM 100.63     LegendNANA
17:00 -2.3 -9.1 60   LegendMM LegendMM LegendMM 100.72     LegendNANA
18:00 -2.6 -9.0 61   LegendMM LegendMM LegendMM 100.86     LegendNANA
19:00 -3.7 -10.4 60   LegendMM LegendMM LegendMM 100.96     LegendNANA
20:00 -4.0 -10.9 59   LegendMM LegendMM LegendMM 100.99     LegendNANA
21:00 -4.3 -11.4 58   LegendMM LegendMM LegendMM 100.99     LegendNANA
22:00 -4.3 -11.6 57   LegendMM LegendMM LegendMM 101.03     LegendNANA
23:00 -4.2 -11.5 57   LegendMM LegendMM LegendMM 101.06     LegendNANA

Notes on Data Quality.

Legend

  • E = Estimated
  • M = Missing
  • NA = Not Available*
  • [empty] = Indicates an unobserved value
Date modified: